OE3GWU-13 Weather Reports


time (UTC)temp
C
wind
direction
speed
KPH
gust
KPH
rain 1hr
cm
rain 24hr
cm
rain mn
cm
humidity
%
barometer
mb
20260502213004 11 344 0.0 1.6 0.00 0.00 0.00 54 1023.0
20260502212004 11 345 1.6 4.8 0.00 0.00 0.00 52 1022.7
20260502211004 11 308 3.2 3.2 0.00 0.00 0.00 50 1022.7
20260502210008 11 331 1.6 8.0 0.00 0.00 0.00 51 1023.0
20260502203008 11 318 1.6 3.2 0.00 0.00 0.00 51 1023.0
20260502202004 11 272 1.6 3.2 0.00 0.00 0.00 50 1023.4
20260502201004 11 338 1.6 1.6 0.00 0.00 0.00 49 1023.4
20260502193004 12 349 1.6 1.6 0.00 0.00 0.00 47 1023.4
20260502191004 11 345 0.0 3.2 0.00 0.00 0.00 53 1023.4
20260502190004 11 351 0.0 1.6 0.00 0.00 0.00 53 1023.4
20260502185004 11 2 0.0 1.6 0.00 0.00 0.00 55 1023.3
20260502183004 12 354 0.0 0.0 0.00 0.00 0.00 49 1023.4
20260502181004 13 350 0.0 1.6 0.00 0.00 0.00 46 1023.0
20260502164004 17 351 3.2 9.7 0.00 0.00 0.00 35 1023.4
20260502163004 18 10 3.2 4.8 0.00 0.00 0.00 34 1023.7
20260502162004 18 228 3.2 9.7 0.00 0.00 0.00 35 1023.7
20260502152004 19 179 9.7 11.3 0.00 0.00 0.00 32 1024.0
20260502151004 19 19 4.8 8.0 0.00 0.00 0.00 33 1024.0
20260502123004 20 170 4.8 9.7 0.00 0.00 0.00 42 1025.4
20260502121005 20 219 8.0 11.3 0.00 0.00 0.00 34 1025.7
20260502114004 19 193 4.8 11.3 0.00 0.00 0.00 33 1025.7
20260502113004 19 218 3.2 11.3 0.00 0.00 0.00 34 1026.1
20260502111004 18 5 0.0 4.8 0.00 0.00 0.00 39 1026.1
20260502110004 18 354 1.6 8.0 0.00 0.00 0.00 33 1026.4
20260502105004 19 349 0.0 8.0 0.00 0.00 0.00 31 1026.4
20260502103004 17 71 1.6 9.7 0.00 0.00 0.00 31 1026.8
20260502091004 16 274 3.2 9.7 0.00 0.00 0.00 37 1027.4
20260502071004 15 349 1.6 4.8 0.00 0.00 0.00 49 1027.8
20260502070004 14 353 1.6 8.0 0.00 0.00 0.00 49 1027.8
20260502065005 13 331 1.6 4.8 0.00 0.00 0.00 53 1027.8
20260502064004 13 231 4.8 4.8 0.00 0.00 0.00 55 1027.8
20260502061004 12 213 3.2 3.2 0.00 0.00 0.00 58 1027.8
20260502054004 10 1 1.6 1.6 0.00 0.00 0.00 74 1027.8
20260502050004 5 14 1.6 3.2 0.00 0.00 0.00 84 1027.8
20260502044004 3 4 1.6 1.6 0.00 0.00 0.00 88 1027.8
20260502043004 2 349 0.0 1.6 0.00 0.00 0.00 90 1027.8
20260502042004 2 3 1.6 1.6 0.00 0.00 0.00 89 1027.8
20260502041004 3 4 1.6 1.6 0.00 0.00 0.00 87 1027.8
20260502035004 3 6 1.6 1.6 0.00 0.00 0.00 86 1027.7
20260502032004 3 6 1.6 1.6 0.00 0.00 0.00 87 1027.8
20260502030008 3 359 1.6 1.6 0.00 0.00 0.00 88 1027.8
20260502025004 3 352 0.0 1.6 0.00 0.00 0.00 88 1027.8
20260502023004 3 2 0.0 1.6 0.00 0.00 0.00 86 1027.8
20260502022004 3 354 0.0 1.6 0.00 0.00 0.00 87 1027.8
20260502021004 3 9 1.6 1.6 0.00 0.00 0.00 86 1027.8
20260502020004 3 5 1.6 1.6 0.00 0.00 0.00 85 1028.1
20260502015004 3 3 1.6 1.6 0.00 0.00 0.00 84 1027.8
20260502012004 4 354 0.0 1.6 0.00 0.00 0.00 84 1028.1
20260502011004 4 0 1.6 1.6 0.00 0.00 0.00 83 1028.1
20260502010004 3 7 1.6 1.6 0.00 0.00 0.00 85 1028.4
20260502005004 3 358 1.6 1.6 0.00 0.00 0.00 84 1028.4
20260502004005 3 4 1.6 1.6 0.00 0.00 0.00 84 1028.4
20260502002005 3 12 1.6 3.2 0.00 0.00 0.00 84 1028.8
20260502001006 3 13 1.6 1.6 0.00 0.00 0.00 85 1028.8
20260502000004 4 4 1.6 1.6 0.00 0.00 0.00 83 1028.8
20260501235004 4 5 1.6 1.6 0.00 0.00 0.00 81 1028.4
20260501234004 4 5 1.6 1.6 0.00 0.00 0.00 81 1028.8
20260501233004 5 3 1.6 1.6 0.00 0.00 0.00 80 1028.8
20260501232004 5 2 1.6 1.6 0.00 0.00 0.00 79 1029.0
20260501231004 5 4 1.6 1.6 0.00 0.00 0.00 80 1028.8
20260501230004 5 11 1.6 1.6 0.00 0.00 0.00 81 1029.0
20260501224004 5 10 1.6 1.6 0.00 0.00 0.00 79 1029.1
20260501222004 5 356 0.0 1.6 0.00 0.00 0.00 81 1029.1
20260501220004 5 6 1.6 3.2 0.00 0.00 0.00 79 1028.8